owner,sensor,date,latitude,longitude,vertical_datum,wind_speed,wind_to_direction,wind_speed_of_gust,qcFlag 
FIT,ioos:station:wmo:SIPF1:1,2019-05-01T00:00:00Z,27.8620,-80.4450,1.0,7.9,93.0,99.0,'11111222,11111222,11144222' 
FIT,ioos:station:wmo:SIPF1:1,2019-05-01T00:15:00Z,27.8620,-80.4450,1.0,7.8,91.0,99.0,'11111222,11111222,11144222' 
FIT,ioos:station:wmo:SIPF1:1,2019-05-01T00:30:00Z,27.8620,-80.4450,1.0,7.1,90.0,99.0,'11111222,11111222,11144222' 
FIT,ioos:station:wmo:SIPF1:1,2019-05-01T00:45:00Z,27.8620,-80.4450,1.0,7.7,90.0,-9999.0,'11111222,11111222,11111222' 
FIT,ioos:station:wmo:SIPF1:1,2019-05-01T01:00:00Z,27.8620,-80.4450,1.0,7.2,97.0,99.0,'11111222,11111222,11144222' 
FIT,ioos:station:wmo:SIPF1:1,2019-05-01T01:15:00Z,27.8620,-80.4450,1.0,7.5,97.0,99.0,'11111222,11111222,11144222' 
FIT,ioos:station:wmo:SIPF1:1,2019-05-01T01:30:00Z,27.8620,-80.4450,1.0,7.3,99.0,99.0,'11111222,11111222,11144222' 
FIT,ioos:station:wmo:SIPF1:1,2019-05-01T01:45:00Z,27.8620,-80.4450,1.0,7.2,90.0,-9999.0,'11111222,11111222,11111222' 
FIT,ioos:station:wmo:SIPF1:1,2019-05-01T02:00:00Z,27.8620,-80.4450,1.0,7.4,97.0,99.0,'11111222,11111222,11144222' 
FIT,ioos:station:wmo:SIPF1:1,2019-05-01T02:15:00Z,27.8620,-80.4450,1.0,7.6,92.0,99.0,'11111222,11111222,11144222' 
FIT,ioos:station:wmo:SIPF1:1,2019-05-01T02:30:00Z,27.8620,-80.4450,1.0,7.8,92.0,99.0,'11111222,11111222,11144222' 
FIT,ioos:station:wmo:SIPF1:1,2019-05-01T02:45:00Z,27.8620,-80.4450,1.0,7.7,90.0,-9999.0,'11111222,11111222,11111222' 
FIT,ioos:station:wmo:SIPF1:1,2019-05-01T03:00:00Z,27.8620,-80.4450,1.0,7.2,93.0,99.0,'11111222,11111222,11144222' 
FIT,ioos:station:wmo:SIPF1:1,2019-05-01T03:15:00Z,27.8620,-80.4450,1.0,7.5,97.0,99.0,'11111222,11111222,11144222' 
FIT,ioos:station:wmo:SIPF1:1,2019-05-01T03:30:00Z,27.8620,-80.4450,1.0,7.7,92.0,99.0,'11111222,11111222,11144222' 
FIT,ioos:station:wmo:SIPF1:1,2019-05-01T03:45:00Z,27.8620,-80.4450,1.0,7.7,90.0,-9999.0,'11111222,11111222,11111222' 
FIT,ioos:station:wmo:SIPF1:1,2019-05-01T04:00:00Z,27.8620,-80.4450,1.0,8.0,95.0,99.0,'11111222,11111222,11144222' 
FIT,ioos:station:wmo:SIPF1:1,2019-05-01T04:15:00Z,27.8620,-80.4450,1.0,8.4,95.0,99.0,'11111222,11111222,11144222' 
FIT,ioos:station:wmo:SIPF1:1,2019-05-01T04:30:00Z,27.8620,-80.4450,1.0,8.4,99.0,99.0,'11111222,11111222,11144222' 
FIT,ioos:station:wmo:SIPF1:1,2019-05-01T04:45:00Z,27.8620,-80.4450,1.0,8.2,100.0,-9999.0,'11111222,11111222,11111222' 
FIT,ioos:station:wmo:SIPF1:1,2019-05-01T05:00:00Z,27.8620,-80.4450,1.0,8.2,102.0,99.0,'11111222,11111222,11144222' 
FIT,ioos:station:wmo:SIPF1:1,2019-05-01T05:15:00Z,27.8620,-80.4450,1.0,8.1,103.0,99.0,'11111222,11111222,11144222' 
FIT,ioos:station:wmo:SIPF1:1,2019-05-01T05:30:00Z,27.8620,-80.4450,1.0,7.8,102.0,99.0,'11111222,11111222,11144222' 
FIT,ioos:station:wmo:SIPF1:1,2019-05-01T05:45:00Z,27.8620,-80.4450,1.0,7.3,101.0,99.0,'11111222,11111222,11144222' 
FIT,ioos:station:wmo:SIPF1:1,2019-05-01T06:00:00Z,27.8620,-80.4450,1.0,6.6,103.0,99.0,'11111222,11111222,11144222' 
FIT,ioos:station:wmo:SIPF1:1,2019-05-01T06:15:00Z,27.8620,-80.4450,1.0,6.7,100.0,-9999.0,'11111222,11111222,11111222' 
FIT,ioos:station:wmo:SIPF1:1,2019-05-01T06:30:00Z,27.8620,-80.4450,1.0,7.1,98.0,99.0,'11111222,11111222,11144222' 
FIT,ioos:station:wmo:SIPF1:1,2019-05-01T06:45:00Z,27.8620,-80.4450,1.0,7.7,100.0,-9999.0,'11111222,11111222,11111222' 
FIT,ioos:station:wmo:SIPF1:1,2019-05-01T07:00:00Z,27.8620,-80.4450,1.0,7.4,98.0,99.0,'11111222,11111222,11144222' 
FIT,ioos:station:wmo:SIPF1:1,2019-05-01T07:15:00Z,27.8620,-80.4450,1.0,7.1,96.0,99.0,'11111222,11111222,11144222' 
FIT,ioos:station:wmo:SIPF1:1,2019-05-01T07:30:00Z,27.8620,-80.4450,1.0,7.5,94.0,99.0,'11111222,11111222,11144222' 
FIT,ioos:station:wmo:SIPF1:1,2019-05-01T07:45:00Z,27.8620,-80.4450,1.0,7.7,100.0,-9999.0,'11111222,11111222,11111222' 
FIT,ioos:station:wmo:SIPF1:1,2019-05-01T08:00:00Z,27.8620,-80.4450,1.0,7.9,95.0,99.0,'11111222,11111222,11144222' 
FIT,ioos:station:wmo:SIPF1:1,2019-05-01T08:15:00Z,27.8620,-80.4450,1.0,8.1,93.0,99.0,'11111222,11111222,11144222' 
FIT,ioos:station:wmo:SIPF1:1,2019-05-01T08:30:00Z,27.8620,-80.4450,1.0,7.6,94.0,99.0,'11111222,11111222,11144222' 
FIT,ioos:station:wmo:SIPF1:1,2019-05-01T08:45:00Z,27.8620,-80.4450,1.0,7.7,90.0,-9999.0,'11111222,11111222,11111222' 
FIT,ioos:station:wmo:SIPF1:1,2019-05-01T09:00:00Z,27.8620,-80.4450,1.0,8.0,95.0,99.0,'11111222,11111222,11144222' 
FIT,ioos:station:wmo:SIPF1:1,2019-05-01T09:15:00Z,27.8620,-80.4450,1.0,8.2,94.0,99.0,'11111222,11111222,11144222' 
FIT,ioos:station:wmo:SIPF1:1,2019-05-01T09:30:00Z,27.8620,-80.4450,1.0,8.3,92.0,99.0,'11111222,11111222,11144222' 
FIT,ioos:station:wmo:SIPF1:1,2019-05-01T09:45:00Z,27.8620,-80.4450,1.0,8.8,90.0,-9999.0,'11111222,11111222,11111222' 
FIT,ioos:station:wmo:SIPF1:1,2019-05-01T10:00:00Z,27.8620,-80.4450,1.0,8.9,93.0,99.0,'11111222,11111222,11144222' 
FIT,ioos:station:wmo:SIPF1:1,2019-05-01T10:15:00Z,27.8620,-80.4450,1.0,8.4,92.0,99.0,'11111222,11111222,11144222' 
FIT,ioos:station:wmo:SIPF1:1,2019-05-01T10:30:00Z,27.8620,-80.4450,1.0,8.8,90.0,-9999.0,'11111222,11111222,11111222' 
FIT,ioos:station:wmo:SIPF1:1,2019-05-01T10:45:00Z,27.8620,-80.4450,1.0,8.2,91.0,99.0,'11111222,11111222,11144222' 
FIT,ioos:station:wmo:SIPF1:1,2019-05-01T11:00:00Z,27.8620,-80.4450,1.0,8.2,88.0,99.0,'11111222,11111222,11144222' 
FIT,ioos:station:wmo:SIPF1:1,2019-05-01T11:15:00Z,27.8620,-80.4450,1.0,8.4,87.0,99.0,'11111222,11111222,11144222' 
FIT,ioos:station:wmo:SIPF1:1,2019-05-01T11:30:00Z,27.8620,-80.4450,1.0,8.8,87.0,99.0,'11111222,11111222,11144222' 
FIT,ioos:station:wmo:SIPF1:1,2019-05-01T11:45:00Z,27.8620,-80.4450,1.0,9.3,80.0,-9999.0,'11111222,11111222,11111222' 
FIT,ioos:station:wmo:SIPF1:1,2019-05-01T12:00:00Z,27.8620,-80.4450,1.0,8.9,88.0,99.0,'11111222,11111222,11144222' 
FIT,ioos:station:wmo:SIPF1:1,2019-05-01T12:15:00Z,27.8620,-80.4450,1.0,9.0,89.0,99.0,'11111222,11111222,11144222' 
FIT,ioos:station:wmo:SIPF1:1,2019-05-01T12:30:00Z,27.8620,-80.4450,1.0,9.2,88.0,99.0,'11111222,11111222,11144222' 
FIT,ioos:station:wmo:SIPF1:1,2019-05-01T12:45:00Z,27.8620,-80.4450,1.0,8.8,90.0,-9999.0,'11111222,11111222,11111222' 
FIT,ioos:station:wmo:SIPF1:1,2019-05-01T13:00:00Z,27.8620,-80.4450,1.0,9.2,84.0,99.0,'11111222,11111222,11144222' 
FIT,ioos:station:wmo:SIPF1:1,2019-05-01T13:15:00Z,27.8620,-80.4450,1.0,9.7,81.0,99.0,'11111222,11111222,11144222' 
FIT,ioos:station:wmo:SIPF1:1,2019-05-01T13:30:00Z,27.8620,-80.4450,1.0,8.9,81.0,99.0,'11111222,11111222,11144222' 
FIT,ioos:station:wmo:SIPF1:1,2019-05-01T13:45:00Z,27.8620,-80.4450,1.0,9.3,80.0,-9999.0,'11111222,11111222,11111222' 
FIT,ioos:station:wmo:SIPF1:1,2019-05-01T14:00:00Z,27.8620,-80.4450,1.0,8.6,79.0,99.0,'11111222,11111222,11144222' 
FIT,ioos:station:wmo:SIPF1:1,2019-05-01T14:15:00Z,27.8620,-80.4450,1.0,9.0,77.0,99.0,'11111222,11111222,11144222' 
FIT,ioos:station:wmo:SIPF1:1,2019-05-01T14:30:00Z,27.8620,-80.4450,1.0,8.7,80.0,99.0,'11111222,11111222,11144222' 
FIT,ioos:station:wmo:SIPF1:1,2019-05-01T14:45:00Z,27.8620,-80.4450,1.0,8.2,80.0,-9999.0,'11111222,11111222,11111222' 
FIT,ioos:station:wmo:SIPF1:1,2019-05-01T15:00:00Z,27.8620,-80.4450,1.0,8.2,76.0,99.0,'11111222,11111222,11144222' 
FIT,ioos:station:wmo:SIPF1:1,2019-05-01T15:15:00Z,27.8620,-80.4450,1.0,8.2,77.0,99.0,'11111222,11111222,11144222' 
FIT,ioos:station:wmo:SIPF1:1,2019-05-01T15:30:00Z,27.8620,-80.4450,1.0,8.2,73.0,99.0,'11111222,11111222,11144222' 
FIT,ioos:station:wmo:SIPF1:1,2019-05-01T15:45:00Z,27.8620,-80.4450,1.0,7.7,70.0,-9999.0,'11111222,11111222,11111222' 
FIT,ioos:station:wmo:SIPF1:1,2019-05-01T16:00:00Z,27.8620,-80.4450,1.0,7.8,71.0,99.0,'11111222,11111222,11144222' 
FIT,ioos:station:wmo:SIPF1:1,2019-05-01T16:15:00Z,27.8620,-80.4450,1.0,8.3,73.0,99.0,'11111222,11111222,11144222' 
FIT,ioos:station:wmo:SIPF1:1,2019-05-01T16:30:00Z,27.8620,-80.4450,1.0,8.1,74.0,99.0,'11111222,11111222,11144222' 
FIT,ioos:station:wmo:SIPF1:1,2019-05-01T16:45:00Z,27.8620,-80.4450,1.0,8.8,70.0,-9999.0,'11111222,11111222,11111222' 
FIT,ioos:station:wmo:SIPF1:1,2019-05-01T17:00:00Z,27.8620,-80.4450,1.0,8.2,68.0,99.0,'11111222,11111222,11144222' 
FIT,ioos:station:wmo:SIPF1:1,2019-05-01T17:15:00Z,27.8620,-80.4450,1.0,8.1,65.0,99.0,'11111222,11111222,11144222' 
FIT,ioos:station:wmo:SIPF1:1,2019-05-01T17:30:00Z,27.8620,-80.4450,1.0,8.0,68.0,99.0,'11111222,11111222,11144222' 
FIT,ioos:station:wmo:SIPF1:1,2019-05-01T17:45:00Z,27.8620,-80.4450,1.0,8.2,60.0,-9999.0,'11111222,11111222,11111222' 
FIT,ioos:station:wmo:SIPF1:1,2019-05-01T18:00:00Z,27.8620,-80.4450,1.0,8.4,69.0,99.0,'11111222,11111222,11144222' 
FIT,ioos:station:wmo:SIPF1:1,2019-05-01T18:15:00Z,27.8620,-80.4450,1.0,8.4,67.0,99.0,'11111222,11111222,11144222' 
FIT,ioos:station:wmo:SIPF1:1,2019-05-01T18:30:00Z,27.8620,-80.4450,1.0,8.7,67.0,99.0,'11111222,11111222,11144222' 
FIT,ioos:station:wmo:SIPF1:1,2019-05-01T18:45:00Z,27.8620,-80.4450,1.0,8.2,70.0,-9999.0,'11111222,11111222,11111222' 
FIT,ioos:station:wmo:SIPF1:1,2019-05-01T19:00:00Z,27.8620,-80.4450,1.0,8.4,68.0,99.0,'11111222,11111222,11144222' 
FIT,ioos:station:wmo:SIPF1:1,2019-05-01T19:15:00Z,27.8620,-80.4450,1.0,8.7,68.0,99.0,'11111222,11111222,11144222' 
FIT,ioos:station:wmo:SIPF1:1,2019-05-01T19:30:00Z,27.8620,-80.4450,1.0,8.7,68.0,99.0,'11111222,11111222,11144222' 
FIT,ioos:station:wmo:SIPF1:1,2019-05-01T19:45:00Z,27.8620,-80.4450,1.0,8.8,70.0,-9999.0,'11111222,11111222,11111222' 
FIT,ioos:station:wmo:SIPF1:1,2019-05-01T20:00:00Z,27.8620,-80.4450,1.0,9.0,65.0,99.0,'11111222,11111222,11144222' 
FIT,ioos:station:wmo:SIPF1:1,2019-05-01T20:15:00Z,27.8620,-80.4450,1.0,9.5,69.0,99.0,'11111222,11111222,11144222' 
FIT,ioos:station:wmo:SIPF1:1,2019-05-01T20:30:00Z,27.8620,-80.4450,1.0,7.9,65.0,99.0,'11111222,11111222,11144222' 
FIT,ioos:station:wmo:SIPF1:1,2019-05-01T20:45:00Z,27.8620,-80.4450,1.0,9.8,70.0,-9999.0,'11111222,11111222,11111222' 
FIT,ioos:station:wmo:SIPF1:1,2019-05-01T21:00:00Z,27.8620,-80.4450,1.0,8.8,64.0,99.0,'11111222,11111222,11144222' 
FIT,ioos:station:wmo:SIPF1:1,2019-05-01T21:15:00Z,27.8620,-80.4450,1.0,8.9,78.0,99.0,'11111222,11111222,11144222' 
FIT,ioos:station:wmo:SIPF1:1,2019-05-01T21:30:00Z,27.8620,-80.4450,1.0,8.7,75.0,99.0,'11111222,11111222,11144222' 
FIT,ioos:station:wmo:SIPF1:1,2019-05-01T21:45:00Z,27.8620,-80.4450,1.0,7.7,70.0,-9999.0,'11111222,11111222,11111222' 
FIT,ioos:station:wmo:SIPF1:1,2019-05-01T22:00:00Z,27.8620,-80.4450,1.0,9.3,77.0,99.0,'11111222,11111222,11144222' 
FIT,ioos:station:wmo:SIPF1:1,2019-05-01T22:15:00Z,27.8620,-80.4450,1.0,9.2,71.0,99.0,'11111222,11111222,11144222' 
FIT,ioos:station:wmo:SIPF1:1,2019-05-01T22:30:00Z,27.8620,-80.4450,1.0,8.1,70.0,99.0,'11111222,11111222,11144222' 
FIT,ioos:station:wmo:SIPF1:1,2019-05-01T22:45:00Z,27.8620,-80.4450,1.0,9.3,70.0,-9999.0,'11111222,11111222,11111222' 
FIT,ioos:station:wmo:SIPF1:1,2019-05-01T23:00:00Z,27.8620,-80.4450,1.0,10.4,76.0,99.0,'11111222,11111222,11144222' 
FIT,ioos:station:wmo:SIPF1:1,2019-05-01T23:15:00Z,27.8620,-80.4450,1.0,11.0,82.0,99.0,'11111222,11111222,11144222' 
FIT,ioos:station:wmo:SIPF1:1,2019-05-01T23:30:00Z,27.8620,-80.4450,1.0,8.7,75.0,99.0,'11111222,11111222,11144222' 
FIT,ioos:station:wmo:SIPF1:1,2019-05-01T23:45:00Z,27.8620,-80.4450,1.0,7.7,80.0,-9999.0,'11111222,11111222,11111222' 
FIT,ioos:station:wmo:SIPF1:1,2019-05-02T00:00:00Z,27.8620,-80.4450,1.0,8.7,73.0,99.0,'11111222,11111222,11144222' 
FIT,ioos:station:wmo:SIPF1:1,2019-05-02T00:15:00Z,27.8620,-80.4450,1.0,8.6,67.0,99.0,'11111222,11111222,11144222' 
FIT,ioos:station:wmo:SIPF1:1,2019-05-02T00:30:00Z,27.8620,-80.4450,1.0,7.4,54.0,99.0,'11111222,11111222,11144222' 
FIT,ioos:station:wmo:SIPF1:1,2019-05-02T00:45:00Z,27.8620,-80.4450,1.0,7.2,70.0,-9999.0,'11111222,11111222,11111222' 
FIT,ioos:station:wmo:SIPF1:1,2019-05-02T01:00:00Z,27.8620,-80.4450,1.0,8.1,65.0,99.0,'11111222,11111222,11144222' 
FIT,ioos:station:wmo:SIPF1:1,2019-05-02T01:15:00Z,27.8620,-80.4450,1.0,10.8,74.0,99.0,'11111222,11111222,11144222' 
FIT,ioos:station:wmo:SIPF1:1,2019-05-02T01:30:00Z,27.8620,-80.4450,1.0,11.1,79.0,99.0,'11111222,11111222,11144222' 
FIT,ioos:station:wmo:SIPF1:1,2019-05-02T01:45:00Z,27.8620,-80.4450,1.0,11.3,80.0,-9999.0,'11111222,11111222,11111222' 
FIT,ioos:station:wmo:SIPF1:1,2019-05-02T02:00:00Z,27.8620,-80.4450,1.0,9.8,77.0,99.0,'11111222,11111222,11144222' 
FIT,ioos:station:wmo:SIPF1:1,2019-05-02T02:15:00Z,27.8620,-80.4450,1.0,9.6,72.0,99.0,'11111222,11111222,11144222' 
FIT,ioos:station:wmo:SIPF1:1,2019-05-02T02:30:00Z,27.8620,-80.4450,1.0,8.7,66.0,99.0,'11111222,11111222,11144222' 
FIT,ioos:station:wmo:SIPF1:1,2019-05-02T02:45:00Z,27.8620,-80.4450,1.0,9.8,80.0,-9999.0,'11111222,11111222,11111222' 
FIT,ioos:station:wmo:SIPF1:1,2019-05-02T03:00:00Z,27.8620,-80.4450,1.0,9.8,75.0,99.0,'11111222,11111222,11144222' 
FIT,ioos:station:wmo:SIPF1:1,2019-05-02T03:15:00Z,27.8620,-80.4450,1.0,8.1,71.0,99.0,'11111222,11111222,11144222' 
FIT,ioos:station:wmo:SIPF1:1,2019-05-02T03:30:00Z,27.8620,-80.4450,1.0,8.5,84.0,99.0,'11111222,11111222,11144222' 
FIT,ioos:station:wmo:SIPF1:1,2019-05-02T03:45:00Z,27.8620,-80.4450,1.0,8.2,80.0,-9999.0,'11111222,11111222,11111222' 
FIT,ioos:station:wmo:SIPF1:1,2019-05-02T04:00:00Z,27.8620,-80.4450,1.0,7.8,73.0,99.0,'11111222,11111222,11144222' 
FIT,ioos:station:wmo:SIPF1:1,2019-05-02T04:15:00Z,27.8620,-80.4450,1.0,8.0,85.0,99.0,'11111222,11111222,11144222' 
FIT,ioos:station:wmo:SIPF1:1,2019-05-02T04:30:00Z,27.8620,-80.4450,1.0,8.4,106.0,99.0,'11111222,11111222,11144222' 
FIT,ioos:station:wmo:SIPF1:1,2019-05-02T04:45:00Z,27.8620,-80.4450,1.0,9.3,100.0,-9999.0,'11111222,11111222,11111222' 
FIT,ioos:station:wmo:SIPF1:1,2019-05-02T05:00:00Z,27.8620,-80.4450,1.0,7.1,88.0,99.0,'11111222,11111222,11144222' 
FIT,ioos:station:wmo:SIPF1:1,2019-05-02T05:15:00Z,27.8620,-80.4450,1.0,7.0,98.0,99.0,'11111222,11111222,11144222' 
FIT,ioos:station:wmo:SIPF1:1,2019-05-02T05:30:00Z,27.8620,-80.4450,1.0,8.3,93.0,99.0,'11111222,11111222,11144222' 
FIT,ioos:station:wmo:SIPF1:1,2019-05-02T05:45:00Z,27.8620,-80.4450,1.0,9.3,100.0,-9999.0,'11111222,11111222,11111222' 
FIT,ioos:station:wmo:SIPF1:1,2019-05-02T06:00:00Z,27.8620,-80.4450,1.0,9.9,99.0,99.0,'11111222,11111222,11144222' 
FIT,ioos:station:wmo:SIPF1:1,2019-05-02T06:15:00Z,27.8620,-80.4450,1.0,9.3,94.0,99.0,'11111222,11111222,11144222' 
FIT,ioos:station:wmo:SIPF1:1,2019-05-02T06:30:00Z,27.8620,-80.4450,1.0,9.1,94.0,99.0,'11111222,11111222,11144222' 
FIT,ioos:station:wmo:SIPF1:1,2019-05-02T06:45:00Z,27.8620,-80.4450,1.0,9.3,90.0,-9999.0,'11111222,11111222,11111222' 
FIT,ioos:station:wmo:SIPF1:1,2019-05-02T07:00:00Z,27.8620,-80.4450,1.0,8.9,94.0,99.0,'11111222,11111222,11144222' 
FIT,ioos:station:wmo:SIPF1:1,2019-05-02T07:15:00Z,27.8620,-80.4450,1.0,9.8,92.0,99.0,'11111222,11111222,11144222' 
FIT,ioos:station:wmo:SIPF1:1,2019-05-02T07:30:00Z,27.8620,-80.4450,1.0,8.9,82.0,99.0,'11111222,11111222,11144222' 
FIT,ioos:station:wmo:SIPF1:1,2019-05-02T07:45:00Z,27.8620,-80.4450,1.0,8.2,90.0,-9999.0,'11111222,11111222,11111222' 
FIT,ioos:station:wmo:SIPF1:1,2019-05-02T08:00:00Z,27.8620,-80.4450,1.0,9.4,85.0,99.0,'11111222,11111222,11144222' 
FIT,ioos:station:wmo:SIPF1:1,2019-05-02T08:15:00Z,27.8620,-80.4450,1.0,8.4,89.0,99.0,'11111222,11111222,11144222' 
FIT,ioos:station:wmo:SIPF1:1,2019-05-02T08:30:00Z,27.8620,-80.4450,1.0,9.3,94.0,99.0,'11111222,11111222,11144222' 
FIT,ioos:station:wmo:SIPF1:1,2019-05-02T08:45:00Z,27.8620,-80.4450,1.0,9.3,90.0,-9999.0,'11111222,11111222,11111222' 
FIT,ioos:station:wmo:SIPF1:1,2019-05-02T09:00:00Z,27.8620,-80.4450,1.0,9.0,88.0,99.0,'11111222,11111222,11144222' 
FIT,ioos:station:wmo:SIPF1:1,2019-05-02T09:15:00Z,27.8620,-80.4450,1.0,8.4,92.0,99.0,'11111222,11111222,11144222' 
FIT,ioos:station:wmo:SIPF1:1,2019-05-02T09:30:00Z,27.8620,-80.4450,1.0,8.7,88.0,99.0,'11111222,11111222,11144222' 
FIT,ioos:station:wmo:SIPF1:1,2019-05-02T09:45:00Z,27.8620,-80.4450,1.0,9.3,90.0,-9999.0,'11111222,11111222,11111222' 
FIT,ioos:station:wmo:SIPF1:1,2019-05-02T10:00:00Z,27.8620,-80.4450,1.0,8.7,92.0,99.0,'11111222,11111222,11144222' 
FIT,ioos:station:wmo:SIPF1:1,2019-05-02T10:15:00Z,27.8620,-80.4450,1.0,8.4,88.0,99.0,'11111222,11111222,11144222' 
FIT,ioos:station:wmo:SIPF1:1,2019-05-02T10:30:00Z,27.8620,-80.4450,1.0,8.7,87.0,99.0,'11111222,11111222,11144222' 
FIT,ioos:station:wmo:SIPF1:1,2019-05-02T10:45:00Z,27.8620,-80.4450,1.0,8.2,90.0,-9999.0,'11111222,11111222,11111222' 
FIT,ioos:station:wmo:SIPF1:1,2019-05-02T11:00:00Z,27.8620,-80.4450,1.0,7.8,92.0,99.0,'11111222,11111222,11144222' 
FIT,ioos:station:wmo:SIPF1:1,2019-05-02T11:15:00Z,27.8620,-80.4450,1.0,7.2,97.0,99.0,'11111222,11111222,11144222' 
FIT,ioos:station:wmo:SIPF1:1,2019-05-02T11:30:00Z,27.8620,-80.4450,1.0,8.3,105.0,99.0,'11111222,11111222,11144222' 
FIT,ioos:station:wmo:SIPF1:1,2019-05-02T11:45:00Z,27.8620,-80.4450,1.0,9.3,110.0,-9999.0,'11111222,11111222,11111222' 
FIT,ioos:station:wmo:SIPF1:1,2019-05-02T12:00:00Z,27.8620,-80.4450,1.0,8.0,104.0,99.0,'11111222,11111222,11144222' 
FIT,ioos:station:wmo:SIPF1:1,2019-05-02T12:15:00Z,27.8620,-80.4450,1.0,8.8,103.0,99.0,'11111222,11111222,11144222' 
FIT,ioos:station:wmo:SIPF1:1,2019-05-02T12:30:00Z,27.8620,-80.4450,1.0,7.4,102.0,99.0,'11111222,11111222,11144222' 
FIT,ioos:station:wmo:SIPF1:1,2019-05-02T12:45:00Z,27.8620,-80.4450,1.0,6.2,120.0,-9999.0,'11111222,11111222,11111222' 
FIT,ioos:station:wmo:SIPF1:1,2019-05-02T13:00:00Z,27.8620,-80.4450,1.0,7.4,100.0,99.0,'11111222,11111222,11144222' 
FIT,ioos:station:wmo:SIPF1:1,2019-05-02T13:15:00Z,27.8620,-80.4450,1.0,8.0,97.0,99.0,'11111222,11111222,11144222' 
FIT,ioos:station:wmo:SIPF1:1,2019-05-02T13:30:00Z,27.8620,-80.4450,1.0,7.5,96.0,99.0,'11111222,11111222,11144222' 
FIT,ioos:station:wmo:SIPF1:1,2019-05-02T13:45:00Z,27.8620,-80.4450,1.0,7.2,100.0,-9999.0,'11111222,11111222,11111222' 
FIT,ioos:station:wmo:SIPF1:1,2019-05-02T14:00:00Z,27.8620,-80.4450,1.0,7.4,101.0,99.0,'11111222,11111222,11144222' 
FIT,ioos:station:wmo:SIPF1:1,2019-05-02T14:15:00Z,27.8620,-80.4450,1.0,6.8,99.0,99.0,'11111222,11111222,11144222' 
FIT,ioos:station:wmo:SIPF1:1,2019-05-02T14:30:00Z,27.8620,-80.4450,1.0,7.0,100.0,99.0,'11111222,11111222,11144222' 
FIT,ioos:station:wmo:SIPF1:1,2019-05-02T14:45:00Z,27.8620,-80.4450,1.0,6.2,100.0,-9999.0,'11111222,11111222,11111222' 
FIT,ioos:station:wmo:SIPF1:1,2019-05-02T15:00:00Z,27.8620,-80.4450,1.0,6.0,104.0,99.0,'11111222,11111222,11144222' 
FIT,ioos:station:wmo:SIPF1:1,2019-05-02T15:15:00Z,27.8620,-80.4450,1.0,5.9,112.0,99.0,'11111222,11111222,11144222' 
FIT,ioos:station:wmo:SIPF1:1,2019-05-02T15:30:00Z,27.8620,-80.4450,1.0,5.9,114.0,99.0,'11111222,11111222,11144222' 
FIT,ioos:station:wmo:SIPF1:1,2019-05-02T15:45:00Z,27.8620,-80.4450,1.0,5.7,100.0,-9999.0,'11111222,11111222,11111222' 
FIT,ioos:station:wmo:SIPF1:1,2019-05-02T16:00:00Z,27.8620,-80.4450,1.0,4.6,105.0,99.0,'11111222,11111222,11144222' 
FIT,ioos:station:wmo:SIPF1:1,2019-05-02T16:15:00Z,27.8620,-80.4450,1.0,5.6,116.0,99.0,'11111222,11111222,11144222' 
FIT,ioos:station:wmo:SIPF1:1,2019-05-02T16:30:00Z,27.8620,-80.4450,1.0,4.8,114.0,99.0,'11111222,11111222,11144222' 
FIT,ioos:station:wmo:SIPF1:1,2019-05-02T16:45:00Z,27.8620,-80.4450,1.0,4.6,110.0,-9999.0,'11111222,11111222,11111222' 
FIT,ioos:station:wmo:SIPF1:1,2019-05-02T17:00:00Z,27.8620,-80.4450,1.0,5.0,118.0,99.0,'11111222,11111222,11144222' 
FIT,ioos:station:wmo:SIPF1:1,2019-05-02T17:15:00Z,27.8620,-80.4450,1.0,5.6,128.0,99.0,'11111222,11111222,11144222' 
FIT,ioos:station:wmo:SIPF1:1,2019-05-02T17:30:00Z,27.8620,-80.4450,1.0,5.2,125.0,99.0,'11111222,11111222,11144222' 
FIT,ioos:station:wmo:SIPF1:1,2019-05-02T17:45:00Z,27.8620,-80.4450,1.0,4.6,130.0,-9999.0,'11111222,11111222,11111222' 
FIT,ioos:station:wmo:SIPF1:1,2019-05-02T18:00:00Z,27.8620,-80.4450,1.0,4.1,119.0,99.0,'11111222,11111222,11144222' 
FIT,ioos:station:wmo:SIPF1:1,2019-05-02T18:15:00Z,27.8620,-80.4450,1.0,4.2,116.0,99.0,'11111222,11111222,11144222' 
FIT,ioos:station:wmo:SIPF1:1,2019-05-02T18:30:00Z,27.8620,-80.4450,1.0,4.5,113.0,99.0,'11111222,11111222,11144222' 
FIT,ioos:station:wmo:SIPF1:1,2019-05-02T18:45:00Z,27.8620,-80.4450,1.0,4.6,120.0,-9999.0,'11111222,11111222,11111222' 
FIT,ioos:station:wmo:SIPF1:1,2019-05-02T19:00:00Z,27.8620,-80.4450,1.0,4.1,111.0,99.0,'11111222,11111222,11144222' 
FIT,ioos:station:wmo:SIPF1:1,2019-05-02T19:15:00Z,27.8620,-80.4450,1.0,3.9,111.0,99.0,'11111222,11111222,11144222' 
FIT,ioos:station:wmo:SIPF1:1,2019-05-02T19:30:00Z,27.8620,-80.4450,1.0,4.0,103.0,99.0,'11111222,11111222,11144222' 
FIT,ioos:station:wmo:SIPF1:1,2019-05-02T19:45:00Z,27.8620,-80.4450,1.0,4.1,100.0,-9999.0,'11111222,11111222,11111222' 
FIT,ioos:station:wmo:SIPF1:1,2019-05-02T20:00:00Z,27.8620,-80.4450,1.0,4.4,99.0,99.0,'11111222,11111222,11144222' 
FIT,ioos:station:wmo:SIPF1:1,2019-05-02T20:15:00Z,27.8620,-80.4450,1.0,4.7,106.0,99.0,'11111222,11111222,11144222' 
FIT,ioos:station:wmo:SIPF1:1,2019-05-02T20:30:00Z,27.8620,-80.4450,1.0,4.3,118.0,99.0,'11111222,11111222,11144222' 
FIT,ioos:station:wmo:SIPF1:1,2019-05-02T20:45:00Z,27.8620,-80.4450,1.0,4.1,120.0,-9999.0,'11111222,11111222,11111222' 
FIT,ioos:station:wmo:SIPF1:1,2019-05-02T21:00:00Z,27.8620,-80.4450,1.0,4.8,122.0,99.0,'11111222,11111222,11144222' 
FIT,ioos:station:wmo:SIPF1:1,2019-05-02T21:15:00Z,27.8620,-80.4450,1.0,4.7,127.0,99.0,'11111222,11111222,11144222' 
FIT,ioos:station:wmo:SIPF1:1,2019-05-02T21:30:00Z,27.8620,-80.4450,1.0,4.8,135.0,99.0,'11111222,11111222,11144222' 
FIT,ioos:station:wmo:SIPF1:1,2019-05-02T21:45:00Z,27.8620,-80.4450,1.0,5.1,130.0,-9999.0,'11111222,11111222,11111222' 
FIT,ioos:station:wmo:SIPF1:1,2019-05-02T22:00:00Z,27.8620,-80.4450,1.0,5.7,136.0,99.0,'11111222,11111222,11144222' 
FIT,ioos:station:wmo:SIPF1:1,2019-05-02T22:15:00Z,27.8620,-80.4450,1.0,6.8,140.0,99.0,'11111222,11111222,11144222' 
FIT,ioos:station:wmo:SIPF1:1,2019-05-02T22:30:00Z,27.8620,-80.4450,1.0,7.6,139.0,99.0,'11111222,11111222,11144222' 
FIT,ioos:station:wmo:SIPF1:1,2019-05-02T22:45:00Z,27.8620,-80.4450,1.0,6.7,130.0,-9999.0,'11111222,11111222,11111222' 
FIT,ioos:station:wmo:SIPF1:1,2019-05-02T23:00:00Z,27.8620,-80.4450,1.0,7.8,135.0,99.0,'11111222,11111222,11144222' 
FIT,ioos:station:wmo:SIPF1:1,2019-05-02T23:15:00Z,27.8620,-80.4450,1.0,7.6,157.0,99.0,'11111222,11111222,11144222' 
FIT,ioos:station:wmo:SIPF1:1,2019-05-02T23:30:00Z,27.8620,-80.4450,1.0,5.8,181.0,99.0,'11111222,11111222,11144222' 
FIT,ioos:station:wmo:SIPF1:1,2019-05-02T23:45:00Z,27.8620,-80.4450,1.0,5.1,190.0,-9999.0,'11111222,11111222,11111222' 
FIT,ioos:station:wmo:SIPF1:1,2019-05-03T00:00:00Z,27.8620,-80.4450,1.0,4.6,233.0,99.0,'11111222,11111222,11144222' 
FIT,ioos:station:wmo:SIPF1:1,2019-05-03T00:15:00Z,27.8620,-80.4450,1.0,4.5,232.0,99.0,'11111222,11111222,11144222' 
FIT,ioos:station:wmo:SIPF1:1,2019-05-03T00:30:00Z,27.8620,-80.4450,1.0,3.1,229.0,99.0,'11111222,11111222,11144222' 
FIT,ioos:station:wmo:SIPF1:1,2019-05-03T00:45:00Z,27.8620,-80.4450,1.0,3.1,190.0,-9999.0,'11111222,11111222,11111222' 
FIT,ioos:station:wmo:SIPF1:1,2019-05-03T01:00:00Z,27.8620,-80.4450,1.0,4.7,168.0,99.0,'11111222,11111222,11144222' 
FIT,ioos:station:wmo:SIPF1:1,2019-05-03T01:15:00Z,27.8620,-80.4450,1.0,5.5,173.0,99.0,'11111222,11111222,11144222' 
FIT,ioos:station:wmo:SIPF1:1,2019-05-03T01:30:00Z,27.8620,-80.4450,1.0,4.1,184.0,99.0,'11111222,11111222,11144222' 
FIT,ioos:station:wmo:SIPF1:1,2019-05-03T01:45:00Z,27.8620,-80.4450,1.0,3.1,180.0,-9999.0,'11111222,11111222,11111222' 
FIT,ioos:station:wmo:SIPF1:1,2019-05-03T02:00:00Z,27.8620,-80.4450,1.0,2.8,193.0,99.0,'11111222,11111222,11144222' 
FIT,ioos:station:wmo:SIPF1:1,2019-05-03T02:15:00Z,27.8620,-80.4450,1.0,3.2,200.0,99.0,'11111222,11111222,11144222' 
FIT,ioos:station:wmo:SIPF1:1,2019-05-03T02:30:00Z,27.8620,-80.4450,1.0,3.9,213.0,99.0,'11111222,11111222,11144222' 
FIT,ioos:station:wmo:SIPF1:1,2019-05-03T02:45:00Z,27.8620,-80.4450,1.0,4.6,210.0,-9999.0,'11111222,11111222,11111222' 
FIT,ioos:station:wmo:SIPF1:1,2019-05-03T03:00:00Z,27.8620,-80.4450,1.0,4.6,191.0,99.0,'11111222,11111222,11144222' 